TimePST,TemperatureF,Dew PointF,Humidity,Sea Level PressureIn,VisibilityMPH,Wind Direction,Wind SpeedMPH,Gust SpeedMPH,PrecipitationIn,Events,Conditions,WindDirDegrees,DateUTC
12:15 AM,12.2,5.0,73,30.04,10.0,Calm,Calm,-,N/A,,Clear,0,2013-02-22 08:15:00
12:55 AM,12.2,3.2,67,30.05,10.0,Calm,Calm,-,N/A,,Clear,0,2013-02-22 08:55:00
1:15 AM,10.4,3.2,73,30.05,10.0,Calm,Calm,-,N/A,,Clear,0,2013-02-22 09:15:00
1:35 AM,10.4,3.2,73,30.05,10.0,Calm,Calm,-,N/A,,Clear,0,2013-02-22 09:35:00
1:55 AM,10.4,3.2,73,30.06,10.0,Calm,Calm,-,N/A,,Clear,0,2013-02-22 09:55:00
2:15 AM,10.4,3.2,73,30.05,10.0,Calm,Calm,-,N/A,,Clear,0,2013-02-22 10:15:00
2:35 AM,10.4,3.2,73,30.05,10.0,Calm,Calm,-,N/A,,Clear,0,2013-02-22 10:35:00
2:55 AM,10.4,3.2,73,30.05,10.0,Calm,Calm,-,N/A,,Clear,0,2013-02-22 10:55:00
3:15 AM,8.6,3.2,79,30.05,10.0,Calm,Calm,-,N/A,,Clear,0,2013-02-22 11:15:00
3:35 AM,10.4,3.2,73,30.05,10.0,Calm,Calm,-,N/A,,Clear,0,2013-02-22 11:35:00
3:55 AM,8.6,3.2,79,30.05,10.0,Calm,Calm,-,N/A,,Clear,0,2013-02-22 11:55:00
4:15 AM,8.6,3.2,79,30.06,10.0,Calm,Calm,-,N/A,,Clear,0,2013-02-22 12:15:00
4:35 AM,8.6,3.2,79,30.06,10.0,Calm,Calm,-,N/A,,Clear,0,2013-02-22 12:35:00
4:55 AM,8.6,3.2,79,30.06,10.0,Calm,Calm,-,N/A,,Clear,0,2013-02-22 12:55:00
5:15 AM,8.6,3.2,79,30.07,10.0,Calm,Calm,-,N/A,,Clear,0,2013-02-22 13:15:00
5:35 AM,8.6,3.2,79,30.08,10.0,Calm,Calm,-,N/A,,Clear,0,2013-02-22 13:35:00
5:55 AM,8.6,3.2,79,30.08,10.0,Calm,Calm,-,N/A,,Clear,0,2013-02-22 13:55:00
6:15 AM,6.8,1.4,79,30.09,10.0,Calm,Calm,-,N/A,,Clear,0,2013-02-22 14:15:00
6:35 AM,8.6,3.2,79,30.09,10.0,Calm,Calm,-,N/A,,Clear,0,2013-02-22 14:35:00
6:55 AM,8.6,3.2,79,30.10,10.0,Calm,Calm,-,N/A,,Clear,0,2013-02-22 14:55:00
7:15 AM,10.4,3.2,73,30.11,10.0,Calm,Calm,-,N/A,,Clear,0,2013-02-22 15:15:00
7:35 AM,12.2,5.0,73,30.12,10.0,Calm,Calm,-,N/A,,Clear,0,2013-02-22 15:35:00
7:55 AM,17.6,5.0,58,30.12,10.0,Calm,Calm,-,N/A,,Clear,0,2013-02-22 15:55:00
8:15 AM,21.2,6.8,54,30.13,10.0,Calm,Calm,-,N/A,,Clear,0,2013-02-22 16:15:00
8:35 AM,26.6,5.0,40,30.14,10.0,ENE,3.5,-,N/A,,Clear,70,2013-02-22 16:35:00
8:55 AM,28.4,8.6,43,30.14,10.0,East,4.6,-,N/A,,Clear,80,2013-02-22 16:55:00
9:15 AM,32.0,6.8,35,30.14,10.0,East,4.6,-,N/A,,Clear,80,2013-02-22 17:15:00
9:35 AM,35.6,3.2,26,30.14,10.0,East,6.9,-,N/A,,Clear,80,2013-02-22 17:35:00
9:55 AM,35.6,3.2,26,30.14,10.0,East,8.1,-,N/A,,Clear,90,2013-02-22 17:55:00
10:15 AM,35.6,3.2,26,30.14,10.0,East,6.9,-,N/A,,Clear,80,2013-02-22 18:15:00
10:35 AM,37.4,1.4,22,30.14,10.0,ENE,5.8,-,N/A,,Clear,60,2013-02-22 18:35:00
10:55 AM,37.4,1.4,22,30.14,10.0,NE,8.1,-,N/A,,Clear,50,2013-02-22 18:55:00
11:15 AM,37.4,5.0,26,30.14,10.0,East,10.4,-,N/A,,Clear,80,2013-02-22 19:15:00
11:35 AM,37.4,6.8,28,30.14,10.0,East,10.4,-,N/A,,Clear,80,2013-02-22 19:35:00
11:55 AM,37.4,6.8,28,30.14,10.0,East,12.7,-,N/A,,Clear,80,2013-02-22 19:55:00
12:15 PM,37.4,8.6,30,30.14,10.0,ENE,10.4,-,N/A,,Clear,70,2013-02-22 20:15:00
12:35 PM,37.4,8.6,30,30.13,10.0,East,6.9,-,N/A,,Clear,90,2013-02-22 20:35:00
12:55 PM,37.4,10.4,33,30.12,10.0,East,9.2,-,N/A,,Clear,80,2013-02-22 20:55:00
1:15 PM,37.4,8.6,30,30.12,10.0,ENE,10.4,-,N/A,,Clear,70,2013-02-22 21:15:00
1:35 PM,39.2,10.4,31,30.11,10.0,East,5.8,-,N/A,,Clear,80,2013-02-22 21:35:00
1:55 PM,39.2,10.4,31,30.11,10.0,ENE,6.9,-,N/A,,Clear,70,2013-02-22 21:55:00
2:15 PM,41.0,10.4,29,30.10,10.0,ENE,5.8,-,N/A,,Clear,60,2013-02-22 22:15:00
2:35 PM,41.0,10.4,29,30.10,10.0,Calm,Calm,-,N/A,,Clear,0,2013-02-22 22:35:00
2:55 PM,41.0,12.2,31,30.09,10.0,East,5.8,-,N/A,,Clear,90,2013-02-22 22:55:00
3:15 PM,41.0,14.0,33,30.10,10.0,West,4.6,-,N/A,,Clear,270,2013-02-22 23:15:00
3:35 PM,41.0,17.6,39,30.10,10.0,WNW,9.2,-,N/A,,Clear,300,2013-02-22 23:35:00
3:55 PM,39.2,12.2,33,30.11,10.0,ENE,8.1,-,N/A,,Clear,70,2013-02-22 23:55:00
4:15 PM,37.4,12.2,36,30.11,10.0,ESE,6.9,-,N/A,,Clear,120,2013-02-23 00:15:00
4:35 PM,35.6,10.4,35,30.12,10.0,East,6.9,-,N/A,,Clear,100,2013-02-23 00:35:00
4:55 PM,35.6,8.6,33,30.13,10.0,ENE,5.8,-,N/A,,Clear,60,2013-02-23 00:55:00
5:15 PM,35.6,8.6,33,30.13,10.0,ENE,4.6,-,N/A,,Clear,70,2013-02-23 01:15:00
5:35 PM,33.8,10.4,38,30.14,10.0,ENE,4.6,-,N/A,,Clear,70,2013-02-23 01:35:00
5:55 PM,32.0,15.8,51,30.14,10.0,Calm,Calm,-,N/A,,Clear,0,2013-02-23 01:55:00
6:15 PM,30.2,14.0,51,30.15,10.0,North,3.5,-,N/A,,Clear,10,2013-02-23 02:15:00
6:35 PM,28.4,15.8,59,30.15,10.0,Calm,Calm,-,N/A,,Clear,0,2013-02-23 02:35:00
6:55 PM,28.4,15.8,59,30.16,10.0,Calm,Calm,-,N/A,,Clear,0,2013-02-23 02:55:00
7:15 PM,26.6,15.8,64,30.16,10.0,Calm,Calm,-,N/A,,Clear,0,2013-02-23 03:15:00
7:35 PM,26.6,15.8,64,30.16,10.0,Calm,Calm,-,N/A,,Clear,0,2013-02-23 03:35:00
7:55 PM,26.6,17.6,69,30.16,10.0,West,3.5,-,N/A,,Clear,280,2013-02-23 03:55:00
8:15 PM,24.8,15.8,69,30.16,10.0,Calm,Calm,-,N/A,,Clear,0,2013-02-23 04:15:00
8:35 PM,24.8,17.6,74,30.17,10.0,Calm,Calm,-,N/A,,Clear,0,2013-02-23 04:35:00
8:55 PM,23.0,17.6,80,30.18,10.0,Calm,Calm,-,N/A,,Clear,0,2013-02-23 04:55:00
9:15 PM,23.0,17.6,80,30.18,10.0,Calm,Calm,-,N/A,,Clear,0,2013-02-23 05:15:00
9:35 PM,23.0,15.8,74,30.18,10.0,Calm,Calm,-,N/A,,Clear,0,2013-02-23 05:35:00
9:55 PM,23.0,15.8,74,30.19,7.0,Calm,Calm,-,N/A,,Clear,0,2013-02-23 05:55:00
10:15 PM,21.2,14.0,74,30.18,10.0,Calm,Calm,-,N/A,,Clear,0,2013-02-23 06:15:00
10:35 PM,21.2,14.0,74,30.17,10.0,Calm,Calm,-,N/A,,Clear,0,2013-02-23 06:35:00
10:55 PM,21.2,14.0,74,30.17,10.0,Calm,Calm,-,N/A,,Clear,0,2013-02-23 06:55:00
11:15 PM,19.4,14.0,80,30.17,10.0,Calm,Calm,-,N/A,,Clear,0,2013-02-23 07:15:00
11:35 PM,19.4,14.0,80,30.17,10.0,Calm,Calm,-,N/A,,Clear,0,2013-02-23 07:35:00
11:55 PM,19.4,12.2,74,30.17,10.0,Calm,Calm,-,N/A,,Clear,0,2013-02-23 07:55:00